Flag for Taiwan Weather past 2 weeks in Taipei, Taiwan

Now
77 °F

Sprinkles. Passing clouds.


Feels Like: 78 °F
Forecast: 78 / 86 °F
Wind: 8 mph from Southeast

Location: Sungshan / Taipei

Current Time: Aug 28, 2015 at 8:47:09 PM

Latest Report: Aug 28, 2015 at 8:00 PM


Visibility: 5 mi

Pressure: 29.77 "Hg

Humidity: 89%

Dew point: 73 °F

Location of TaipeiLocation

Historic Weather in Taipei — Graph

°F

Taipei temperature yesterday

Maximum temperature yesterday: 84 °F (at 12:00 PM)
Minimum temperature yesterday: 75 °F (at 1:00 AM)
Average temperature yesterday: 77 °F

Past Weeks' High & Low Weather Summary

 TemperatureHumidityPressure
High97 °F (Aug 15, 12:04 PM)94% (Aug 13, 10:00 PM)29.86 "Hg (Aug 13, 10:00 PM)
Low75 °F (Aug 27, 1:00 AM)39% (Aug 15, 11:53 AM)29.36 "Hg (Aug 23, 12:30 PM)
Average83 °F73%29.68 "Hg
* Reported Aug 13 7:00 PM — Aug 28 7:30 PM, Taipei, Weather by CustomWeather, © 2015

Note: Actual official high and low records may vary slightly from our data, if they occured in-between our weather recording intervals... More about our weather records

Advertising

Taipei weather history for previous 24 hours

 ConditionsComfort  
Time TempWeatherWind HumidityBarometerVisibility
7:30 PM
Fri, Aug 28
77 °FSprinkles. Passing clouds.9 mph89%29.77 "Hg4 mi
7:00 PM77 °FSprinkles. Passing clouds.7 mph89%29.77 "Hg4 mi
6:30 PM75 °FSprinkles. Passing clouds.8 mph94%29.74 "Hg4 mi
6:00 PM75 °FRain showers. Partly sunny.8 mph94%29.74 "Hg1 mi
5:56 PM75 °FRain showers. Mostly cloudy.8 mph94%29.74 "Hg1 mi
5:30 PM75 °FSprinkles. Partly sunny.9 mph94%29.74 "Hg3 mi
5:00 PM75 °FRain showers. Partly sunny.8 mph94%29.74 "Hg2 mi
4:54 PM75 °FRain showers. Partly sunny.9 mph94%29.74 "Hg1 mi
4:30 PM75 °FRain showers. Partly sunny.10 mph94%29.74 "Hg2 mi
4:04 PM77 °FSprinkles. Partly sunny.8 mph89%29.74 "Hg3 mi
3:30 PM77 °FThundershowers. Partly sunny.7 mph89%29.74 "Hg2 mi
3:00 PM77 °FRain showers. Partly sunny.9 mph94%29.74 "Hg2 mi
2:30 PM79 °FRain showers. Partly sunny.1 mph89%29.74 "Hg2 mi
2:00 PM81 °FSprinkles. Partly sunny.No wind84%29.74 "Hg4 mi
1:51 PM79 °FSprinkles. Partly sunny.1 mph84%29.74 "Hg4 mi
1:30 PM79 °FThundershowers. Partly sunny.1 mph89%29.77 "Hg4 mi
1:00 PM79 °FThundershowers. Partly sunny.9 mph79%29.77 "Hg2 mi
12:30 PM81 °FThundershowers. Broken clouds.12 mph79%29.77 "HgN/A
12:03 PM84 °FThundershowers. Broken clouds.9 mph70%29.77 "HgN/A
11:00 AM82 °FPartly sunny.2 mph74%29.77 "HgN/A
10:30 AM82 °FPartly sunny.2 mph74%29.80 "HgN/A
10:00 AM82 °FBroken clouds.5 mph74%29.80 "HgN/A
9:30 AM82 °FPartly sunny.3 mph74%29.80 "HgN/A
9:00 AM82 °FBroken clouds.5 mph74%29.80 "HgN/A
8:30 AM81 °FPartly sunny.5 mph79%29.80 "HgN/A
8:00 AM81 °FPartly sunny.5 mph79%29.80 "HgN/A
7:30 AM81 °FPartly sunny.3 mph79%29.80 "HgN/A
7:00 AM79 °FPartly sunny.5 mph84%29.80 "HgN/A
6:30 AM79 °FPartly sunny.3 mph84%29.77 "HgN/A
6:00 AM77 °FPartly sunny.No wind89%29.77 "HgN/A
5:00 AM77 °FPassing clouds.No wind89%29.77 "HgN/A
4:00 AM77 °FPartly cloudy.3 mph89%29.77 "HgN/A
3:00 AM77 °FPartly cloudy.1 mph89%29.77 "HgN/A
2:00 AM77 °FPassing clouds.1 mph89%29.80 "HgN/A
1:00 AM77 °FPassing clouds.2 mph89%29.80 "Hg5 mi
12:00 AM77 °FPartly cloudy.No wind94%29.83 "Hg4 mi
11:30 PM
Thu, Aug 27
77 °FPartly cloudy.1 mph94%29.83 "Hg4 mi
11:00 PM77 °FPartly cloudy.3 mph94%29.86 "Hg5 mi
10:30 PM77 °FPassing clouds.3 mph89%29.86 "Hg4 mi
10:00 PM77 °FPassing clouds.3 mph89%29.86 "Hg5 mi
9:30 PM77 °FPassing clouds.3 mph89%29.86 "HgN/A
9:00 PM77 °FPassing clouds.6 mph89%29.86 "HgN/A
8:30 PM77 °FPartly cloudy.8 mph89%29.83 "HgN/A
8:00 PM77 °FPartly cloudy.8 mph89%29.83 "HgN/A
Weather by CustomWeather, © 2015

See weather overviewHow to use our weather pages